Location: Cuguron
(43.0994°N, 0.5363°E)
Time: 12:30:54
(UTC+00:00)

Cosmos 2360 Rocket - Pass Details

Date: 15 May 2026
Orbit: 831 x 845 km, 71.0° (Epoch: 7 June)

Event Time Altitude Azimuth Distance (km) Brightness Sun altitude
Rises 21:45:56 0° 334° (NNW) 3,414 6.9 -21.2°
Reaches altitude 10° 21:48:24 10° 334° (NNW) 2,474 5.8 -21.5°
Maximum altitude 21:54:05 83° 248° (WSW) 855 2.1 -22.0°
Enters shadow 21:55:46 48° 165° (SSE) 1,095 2.3 -22.2°
